This demonstration page uses our WeatherBlox Daily Observations layout. Learn more.

Left ArrowRight Arrow

31.31129, -92.44514

Hourly Observations for April 11, 2016

Temp ( °F °C ) Dew Point ( °F °C ) Humidity (%) Winds ( mph kmh ) Pressure ( in mb ) Visibility ( mi km ) Precip ( " mm )
12:53 am 00:53 Cloudy 65 18.3 59 15 81 81 SSE 8 13 30.02 1017 10 16 0.00 0.00
1:53 am 01:53 Partly Cloudy 65 18.3 60 15.6 84 84 SSE 9 15 30.01 1016 10 16 0.00 0.00
2:53 am 02:53 Cloudy 66 18.9 61 16.1 84 84 S 9 15 30.01 1016 10 16 0.00 0.00
3:53 am 03:53 Cloudy with Light Rain 65 18.3 62 16.7 90 90 SE 14 22 29.99 1016 10 16 0.00 0.03
4:53 am 04:53 Mostly Cloudy with Light Rain 65 18.3 63 17.2 93 93 SSE 14 22 29.96 1015 10 16 0.00 0.03
5:26 am 05:26 Mostly Cloudy 65 18.3 63 17.2 93 93 SE 15 24 29.94 1014 10 16 0.00 0.03
5:33 am 05:33 Mostly Cloudy 65 18.3 63 17.2 93 93 SE 14 22 29.94 1014 10 16 0.00 0.03
5:42 am 05:42 Mostly Cloudy 65 18.3 63 17.2 93 93 SSE 12 19 29.94 1014 10 16 0.00 0.03
5:53 am 05:53 Mostly Cloudy 65 18.3 63 17.2 93 93 SSE 10 17 29.97 1015 10 16 0.00 0.03
6:53 am 06:53 Cloudy 67 19.4 64 17.8 91 91 ESE 9 15 29.98 1015 10 16 0.00 0.00
7:53 am 07:53 Cloudy 67 19.4 65 18.3 93 93 SE 7 11 30.00 1016 9 14 0.00 0.00
8:05 am 08:05 Cloudy 67 19.4 65 18.3 93 93 SE 9 15 30.00 1016 9 14 0.00 0.00
8:31 am 08:31 Cloudy 68 20 65 18.3 90 90 SE 9 15 29.97 1015 8 13 0.00 0.00
8:53 am 08:53 Cloudy 69 20.6 66 18.9 90 90 SE 7 11 29.99 1016 9 14 0.00 0.00
9:10 am 09:10 Cloudy 69 20.6 66 18.9 90 90 SSE 8 13 30.00 1016 9 14 0.00 0.00
9:39 am 09:39 Cloudy 69 20.6 66 18.9 90 90 SSE 5 7 30.00 1016 8 13 0.00 0.00
9:53 am 09:53 Cloudy 69 20.6 66 18.9 90 90 Calm 30.02 1017 8 13 0.00 0.00
10:07 am 10:07 Cloudy with Light Rain 69 20.6 67 19.4 93 93 SSE 3 6 30.03 1017 2 3 0.00 0.03
10:43 am 10:43 Cloudy with Light Rain 69 20.6 68 20 96 96 SSE 8 13 30.03 1017 2 3 0.02 0.51
10:50 am 10:50 Cloudy with Light Rain 70 21 70 21 100 100 SSE 7 11 30.00 1016 2 3 0.02 0.51
10:53 am 10:53 Cloudy with Light Rain 69 20.6 69 20.6 100 100 SSE 8 13 30.02 1017 3 4 0.02 0.51
11:14 am 11:14 Cloudy with Mist and Fog 69 20.6 68 20 96 96 S 7 11 30.03 1017 3 4 0.00 0.03
11:29 am 11:29 Cloudy with Mist and Fog 69 20.6 68 20 96 96 SSE 9 15 30.03 1017 3 4 0.00 0.03
11:53 am 11:53 Cloudy with Light Rain 70 21.1 70 21.1 100 100 SSE 10 17 30.00 1016 3 4 0.02 0.51
11:58 am 11:58 Cloudy with Light Rain 70 21.1 69 20.6 97 97 SSE 10 17 30.00 1016 6 10 0.00 0.03
12:43 pm 12:43 Cloudy with Light Rain 70 21.1 69 20.6 97 97 SSE 13 20 29.97 1015 6 10 0.00 0.03
12:53 pm 12:53 Mostly Cloudy with Light Rain 71 21.7 70 21.1 96 96 SSE 12 19 29.96 1015 6 10 0.00 0.03
1:51 pm 13:51 Mostly Cloudy 79 26 70 21 74 74 S 18 30 29.94 1014 9 14 0.00 0.03
1:53 pm 13:53 Mostly Cloudy 78 25.6 70 21.1 76 76 S 18 30 29.95 1014 9 14 0.00 0.03
2:33 pm 14:33 Mostly Cloudy 77 25 69 20.6 77 77 S 16 26 29.94 1014 10 16 0.00 0.00
2:53 pm 14:53 Mostly Cloudy 79 26.1 69 20.6 72 72 S 16 26 29.94 1014 10 16 0.00 0.00
3:15 pm 15:15 Cloudy 78 25.6 69 20.6 74 74 S 17 28 29.94 1014 10 16 0.00 0.00
3:53 pm 15:53 Cloudy 77 25 68 20 74 74 S 15 24 29.93 1014 10 16 0.00 0.00
4:40 pm 16:40 Cloudy 77 25 67 19.4 71 71 S 16 26 29.91 1013 10 16 0.00 0.00
4:53 pm 16:53 Cloudy 76 24.4 66 18.9 72 72 S 18 30 29.92 1013 10 16 0.00 0.00
5:16 pm 17:16 Cloudy 75 23.9 66 18.9 74 74 S 16 26 29.91 1013 10 16 0.00 0.00
5:53 pm 17:53 Cloudy 75 23.9 67 19.4 76 76 SSW 15 24 29.92 1013 10 16 0.00 0.00
6:14 pm 18:14 Cloudy 75 23.9 67 19.4 76 76 S 14 22 29.91 1013 9 14 0.00 0.00
6:53 pm 18:53 Mostly Cloudy 75 23.9 67 19.4 76 76 SSW 13 20 29.89 1012 9 14 0.00 0.00
7:36 pm 19:36 Mostly Cloudy 74 23.3 67 19.4 79 79 SSW 12 19 29.88 1012 9 14 0.00 0.00
7:53 pm 19:53 Cloudy 73 22.8 67 19.4 81 81 SSW 9 15 29.91 1013 10 16 0.00 0.00
8:21 pm 20:21 Cloudy 73 22.8 67 19.4 81 81 SSW 3 6 29.91 1013 10 16 0.00 0.00
8:53 pm 20:53 Cloudy 72 22.2 67 19.4 84 84 SSE 3 6 29.94 1014 9 14 0.00 0.00
9:53 pm 21:53 Cloudy 71 21.7 68 20 90 90 Calm 29.98 1015 9 14 0.00 0.00
10:53 pm 22:53 Cloudy 70 21.1 68 20 93 93 E 3 6 29.99 1016 8 13 0.00 0.00
11:53 pm 23:53 Cloudy 68 20 64 17.8 87 87 NNE 12 19 30.01 1016 10 16 0.00 0.00

Powered by AerisWeather